User: anonymous   Login
Location: Unspecified
(0.0000°N, 0.0000°E)
Time: 06:22:45
(UTC+00:00)
Language:

OPTUS 1C - Orbit

View from above orbital plane
View from above orbital plane
View from above satellite
View from above satellite

Ground track
Ground track

The orbit data is extracted from the following two-line orbital elements,

1 27831U 03028B   17264.63722078 -.00000173 +00000-0 +00000-0 0  9991
2 27831 000.0295 185.0177 0004182 352.2172 208.8845 01.00272211021065
Epoch (UTC): 21 September 2017 15:17:35
Eccentricity: 0.0004182
inclination: 0.0295°
perigee height: 35768 km
apogee height: 35804 km
right ascension of ascending node: 185.0177°
argument of perigee: 352.2172°
revolutions per day: 1.00272211
mean anomaly at epoch: 208.8845°
orbit number at epoch: 2106

The dashed part of the orbit path shows where the satellite is in the earth's shadow,  

DLR